Location: Newark
(34.0131°N, 4.3314°W)
Time: 04:41:51
(UTC+00:00)

Transit 2A Rocket - Pass Details

Date: 29 October 2019
Orbit: 594 x 909 km, 66.7° (Epoch: 17 November)

Event Time Altitude Azimuth Distance (km) Brightness Sun altitude
Rises 03:50:49 0° 245° (WSW) 3,193 - -34.3°
Reaches altitude 10° 03:54:03 10° 264° (W) 2,205 - -33.6°
Maximum altitude 03:57:20 17° 306° (NW) 1,699 - -32.9°
Drops below altitude 10° 04:00:28 10° 348° (NNW) 2,085 - -32.3°
Exits shadow 04:03:00 - 6° (N) 2,809 8.1 -31.8°
Sets 04:03:25 0° 8° (N) 2,947 8.2 -31.7°
